Wind_Speed
2 3 4 4 4 5 5 5 5 6 7 8 8 8 9 9 9 8 9 9 10 10 10 9 10 9 8 8 8 7 7 8 7 7 7 8 8 8 8 8 8 8 8
2 3 4 4 5 6 6 6 6 6 7 8 9 9 9 10 10 10 10 10 10 10 10 10 10 10 9 8 8 8 8 8 8 8 8 8 8 9 9 9 9 9 9
4 4 4 5 5 6 7 7 7 7 7 7 8 9 10 10 10 11 11 11 11 11 10 10 10 9 9 9 9 9 9 10 9 9 9 9 9 9 9 10 10 10 10
5 5 4 5 5 6 7 7 7 7 7 8 8 9 9 10 10 11 11 11 11 11 11 11 10 10 10 10 10 10 10 10 10 10 10 10 11 11 10 10 10 9 10
5 5 5 5 6 6 6 7 6 7 8 8 8 9 10 10 11 11 12 12 12 13 12 12 11 11 11 11 11 12 12 11 11 11 11 11 11 11 11 11 11 10 11
6 6 6 6 6 6 7 8 7 8 8 9 9 9 10 10 11 11 12 12 13 13 12 13 12 12 12 12 13 13 13 13 13 13 12 12 11 11 12 12 11 11 12
6 7 7 7 8 8 8 9 9 9 9 9 9 10 10 10 10 11 11 11 12 13 13 13 13 13 13 12 12 13 13 13 13 13 12 12 12 12 11 12 12 12 12
6 7 8 9 9 9 9 10 10 9 9 9 9 10 10 10 11 11 11 12 12 14 14 14 14 14 14 13 14 14 14 14 14 13 13 12 12 12 12 13 12 13 13
8 8 9 9 10 10 10 10 10 10 10 11 11 11 11 12 12 12 13 14 14 14 15 15 15 16 15 15 15 15 15 15 14 14 13 14 13 13 13 14 14 14 14
9 9 9 10 10 11 11 11 11 11 12 12 12 12 13 13 13 14 14 15 15 16 16 16 17 17 17 16 17 17 16 16 15 15 15 15 15 15 14 15 14 14 15
11 11 10 11 11 11 12 12 12 12 12 13 13 14 14 15 15 15 16 16 16 16 17 16 16 17 18 18 18 18 18 18 17 17 16 16 16 15 16 15 15 16 16
12 12 12 13 12 12 12 12 13 13 13 13 14 15 16 17 17 16 16 17 17 17 17 17 17 18 18 19 19 19 19 19 19 18 18 18 17 17 17 16 16 16 17
13 13 13 14 14 14 14 14 14 14 15 15 15 16 16 17 18 18 18 18 18 19 19 19 19 19 19 19 20 20 20 20 20 20 20 20 19 19 18 18 17 17 18
13 13 14 15 15 14 15 15 16 16 16 16 17 17 17 18 18 19 19 19 19 19 20 20 20 20 20 20 20 20 20 21 22 22 22 22 21 21 20 19 19 18 19
12 13 14 15 15 15 16 16 17 17 17 17 17 17 18 18 19 20 20 20 20 20 21 21 21 21 21 21 21 21 22 22 22 23 22 22 22 21 20 20 20 20 20
14 15 15 16 16 16 16 17 17 17 17 18 18 18 18 18 20 21 21 21 21 22 21 21 22 22 22 22 23 23 23 22 23 23 22 22 23 22 22 21 21 22 22
16 16 16 17 17 17 17 17 18 18 19 19 20 20 20 20 21 21 22 23 24 23 22 22 22 22 23 23 23 24 24 24 24 23 23 23 23 23 23 23 23 23 23
17 18 18 18 18 19 19 19 19 20 20 21 21 21 21 22 22 22 22 23 24 24 24 23 24 24 24 25 25 25 25 24 24 24 24 25 24 24 24 24 24 24 25
18 19 19 20 20 20 21 21 20 20 20 21 21 22 23 22 22 22 22 23 24 25 25 25 25 25 26 27 27 27 26 26 26 26 25 26 26 25 25 26 26 26 26
20 20 20 20 21 21 22 22 22 22 22 22 22 23 23 23 23 23 23 24 25 26 26 26 26 26 27 28 28 28 27 27 27 27 27 27 27 27 28 28 27 27 27
21 21 22 22 23 23 23 23 22 22 22 23 23 23 24 24 24 25 25 25 26 27 27 27 27 27 28 28 28 28 28 28 28 28 29 29 29 28 28 28 29 29 29
22 22 23 24 24 24 24 23 23 23 23 23 24 24 24 25 25 25 26 27 28 28 28 27 27 27 28 28 29 29 30 29 29 29 30 30 30 29 29 29 29 30 30
23 24 24 25 25 25 24 24 24 24 24 24 24 24 25 26 26 26 27 28 28 28 28 28 28 28 28 29 29 30 30 30 30 30 31 31 31 31 30 30 30 30 31
25 25 25 26 26 25 25 24 25 24 24 24 24 25 25 26 27 27 27 27 27 27 27 28 29 29 29 30 30 30 30 30 31 31 31 31 31 31 31 31 31 30 31
26 26 27 26 26 26 26 25 26 26 26 26 26 27 27 27 28 28 28 28 27 27 28 28 29 29 29 30 30 30 30 30 30 31 31 31 31 31 31 30 30 30 30
27 27 27 27 27 27 27 27 27 27 27 28 28 28 29 29 29 29 28 28 27 27 28 28 28 29 30 29 29 30 31 31 31 31 31 32 32 32 31 31 30 30 30
Wind_Direction
235 237 247 251 254 258 261 255 262 251 250 246 244 246 245 243 245 247 243 243 246 249 250 252 253 253 254 259 264 274 277 270 264 261 261 263 268 271 272 274 274 272 270
299 262 253 258 260 262 264 263 269 269 257 253 252 251 252 249 248 249 248 247 247 247 247 250 249 251 256 258 262 269 270 268 269 265 259 261 266 273 274 273 273 274 273
304 296 289 283 279 274 272 274 273 265 260 259 257 258 260 254 252 249 249 248 246 247 247 249 252 255 255 261 263 266 265 266 267 266 263 264 268 274 278 276 274 275 275
300 294 282 278 277 280 276 274 276 266 265 264 263 264 264 259 256 252 253 252 249 250 249 251 254 256 257 260 263 263 265 267 269 269 266 267 270 274 276 279 281 280 279
295 290 282 281 276 278 277 277 273 271 268 265 264 266 263 259 257 254 253 255 254 252 252 252 253 256 258 261 260 263 266 270 269 268 268 269 271 276 276 277 276 277 278
296 288 284 284 282 279 277 276 276 272 269 269 267 266 264 257 253 254 255 254 253 252 253 253 254 257 259 261 260 264 266 268 267 268 271 271 272 277 277 274 274 276 277
294 289 283 282 282 280 280 279 280 274 272 269 264 263 265 263 259 256 257 253 249 250 252 254 255 260 260 260 260 262 266 268 270 271 272 275 277 280 279 276 275 278 278
299 291 288 284 282 281 281 280 280 273 273 269 263 259 258 260 263 261 261 258 257 255 254 255 256 259 261 261 261 261 264 267 269 271 275 277 280 277 275 275 276 276 276
299 294 294 295 290 284 281 280 278 274 273 271 268 263 257 258 264 262 261 260 261 261 257 256 257 259 262 263 262 260 261 264 268 270 274 275 275 276 276 274 273 274 275
303 296 297 297 295 289 286 285 284 277 273 271 270 268 266 266 265 262 261 262 263 263 261 259 259 259 261 262 259 258 260 264 266 268 271 273 275 274 277 275 271 272 274
298 297 294 295 293 292 290 288 286 284 279 276 275 272 270 270 269 267 262 263 264 264 263 261 259 261 260 259 258 258 260 264 264 265 268 271 273 276 277 276 273 271 271
296 296 293 293 291 291 292 291 289 287 283 277 274 274 275 272 271 270 267 263 263 263 265 265 263 262 261 259 260 261 261 261 262 263 267 269 271 272 273 274 274 273 271
295 295 296 295 291 290 290 291 290 287 283 280 276 275 274 272 269 268 267 264 262 262 265 265 263 263 262 262 263 263 262 262 263 264 265 266 268 270 271 272 273 273 273
296 296 295 297 294 291 291 291 290 289 286 283 281 278 277 274 272 269 267 266 264 262 262 264 265 264 264 264 265 265 265 265 264 265 264 264 266 267 269 270 271 272 273
301 300 300 298 298 294 292 292 291 290 287 286 284 282 281 279 276 273 271 270 269 266 264 265 265 265 264 264 265 267 269 268 266 266 266 265 264 267 268 268 269 271 273
302 300 300 301 299 298 294 292 290 289 286 286 285 283 282 281 281 277 273 271 270 270 269 267 265 266 266 267 267 267 268 266 267 268 268 268 267 267 268 268 270 271 272
301 300 300 299 299 298 297 295 292 290 287 285 286 285 284 282 279 277 275 272 270 269 270 268 268 268 268 267 268 269 269 269 267 267 270 270 268 266 267 268 270 270 271
301 300 299 298 297 296 294 292 291 288 286 284 284 284 284 283 280 277 275 272 271 270 269 269 269 268 269 268 267 268 268 268 267 267 270 270 268 268 268 269 270 269 270
299 300 300 299 297 295 294 292 291 289 286 285 285 283 282 281 280 277 276 274 272 272 271 269 268 267 267 269 268 267 267 267 267 267 268 268 267 268 269 269 269 269 269
299 298 298 298 298 297 294 292 291 289 287 285 283 283 281 280 279 277 276 275 274 274 274 272 269 268 268 268 269 268 268 268 269 269 270 270 269 268 270 269 269 269 269
300 300 298 297 297 298 296 294 293 292 289 288 287 286 283 280 280 278 277 276 275 276 276 274 272 270 269 269 269 269 269 268 267 269 270 271 272 270 269 268 268 269 268
303 302 300 300 301 301 300 297 295 293 293 291 290 288 285 283 283 281 279 279 278 278 277 276 274 272 270 270 269 269 270 270 269 269 269 270 270 271 271 269 269 269 268
305 305 304 302 302 302 300 298 296 294 292 292 292 292 289 288 287 285 284 282 278 277 275 274 274 273 272 272 271 271 270 271 271 270 269 268 269 271 272 271 272 270 268
303 303 304 303 302 301 299 297 295 294 293 293 293 293 291 289 287 287 287 282 279 277 275 275 275 274 273 273 272 272 272 271 272 272 271 271 269 270 270 270 270 268 267
302 302 301 301 300 300 298 296 295 295 294 293 293 292 290 288 288 287 287 284 281 277 275 274 275 274 274 273 274 274 274 273 273 272 271 271 270 270 269 269 269 269 268
302 303 303 302 301 300 298 297 295 295 293 293 292 291 289 288 288 287 286 285 283 279 274 273 274 275 275 276 278 277 276 273 272 272 272 272 271 271 270 269 268 267 267
Height
5876 5876 5876 5876 5876 5876 5877 5877 5876 5876 5876 5876 5877 5877 5878 5878 5879 5879 5880 5881 5881 5882 5882 5883 5883 5883 5884 5884 5884 5883 5883 5883 5883 5883 5883 5883 5883 5883 5883 5883 5883 5883 5883
5875 5875 5875 5875 5875 5875 5875 5875 5875 5874 5874 5874 5875 5875 5876 5876 5876 5877 5878 5878 5879 5880 5880 5881 5881 5881 5882 5882 5882 5882 5882 5882 5882 5881 5881 5882 5882 5882 5882 5882 5881 5881 5881
5874 5874 5874 5874 5874 5874 5874 5873 5873 5872 5872 5872 5873 5873 5873 5873 5874 5875 5875 5876 5877 5878 5878 5878 5879 5879 5880 5880 5880 5880 5880 5880 5880 5880 5880 5880 5880 5880 5880 5880 5879 5879 5879
5873 5873 5873 5873 5873 5873 5872 5872 5872 5871 5871 5871 5871 5871 5871 5871 5871 5872 5873 5874 5874 5875 5875 5876 5876 5877 5877 5878 5878 5878 5878 5878 5878 5878 5878 5878 5878 5878 5878 5878 5877 5877 5877
5872 5872 5872 5872 5871 5871 5870 5870 5870 5869 5869 5869 5868 5868 5868 5868 5869 5870 5870 5871 5872 5872 5873 5873 5874 5874 5875 5875 5875 5876 5875 5875 5875 5875 5875 5875 5875 5875 5875 5875 5875 5874 5874
5871 5870 5870 5870 5870 5869 5869 5868 5868 5867 5867 5866 5866 5866 5866 5866 5866 5867 5868 5868 5869 5869 5870 5870 5871 5871 5872 5872 5873 5873 5873 5872 5872 5872 5872 5872 5872 5872 5872 5872 5872 5872 5871
5870 5869 5869 5868 5868 5867 5867 5866 5866 5865 5865 5864 5864 5864 5864 5864 5864 5864 5865 5865 5865 5866 5867 5867 5868 5868 5869 5869 5869 5870 5870 5870 5869 5869 5869 5870 5869 5869 5869 5869 5869 5869 5869
5868 5868 5867 5867 5866 5865 5865 5864 5864 5863 5863 5862 5862 5862 5862 5863 5862 5862 5862 5862 5863 5863 5863 5864 5864 5865 5865 5866 5866 5866 5867 5867 5867 5867 5867 5867 5866 5866 5866 5866 5866 5866 5865
5866 5866 5865 5864 5863 5863 5862 5862 5861 5861 5860 5860 5860 5860 5860 5860 5859 5859 5859 5859 5859 5859 5860 5860 5861 5861 5862 5862 5862 5863 5863 5863 5863 5864 5864 5863 5863 5863 5863 5862 5862 5862 5861
5864 5863 5863 5862 5861 5860 5860 5859 5858 5858 5857 5857 5857 5856 5856 5856 5856 5856 5855 5855 5855 5855 5856 5856 5856 5857 5857 5858 5858 5859 5859 5859 5860 5860 5860 5860 5859 5859 5859 5858 5858 5858 5858
5862 5861 5860 5859 5859 5858 5857 5856 5855 5855 5854 5854 5854 5853 5852 5852 5852 5852 5852 5851 5851 5851 5851 5851 5852 5852 5852 5853 5853 5854 5855 5855 5855 5855 5855 5855 5855 5855 5855 5854 5854 5854 5854
5859 5858 5857 5856 5856 5855 5854 5853 5852 5852 5851 5850 5850 5849 5849 5848 5848 5847 5847 5847 5847 5847 5847 5847 5847 5847 5847 5848 5848 5849 5849 5850 5850 5851 5851 5851 5851 5851 5851 5850 5850 5850 5849
5857 5856 5855 5853 5852 5852 5851 5850 5849 5848 5847 5846 5846 5845 5844 5844 5843 5843 5843 5842 5842 5842 5842 5842 5842 5842 5842 5843 5843 5844 5844 5845 5845 5845 5846 5846 5846 5846 5846 5846 5845 5845 5845
5854 5853 5852 5851 5849 5848 5847 5846 5845 5844 5843 5842 5841 5840 5840 5839 5839 5838 5837 5837 5837 5837 5837 5837 5837 5837 5837 5838 5838 5838 5838 5839 5839 5840 5840 5840 5840 5841 5841 5840 5840 5840 5839
5851 5850 5849 5847 5845 5844 5843 5842 5840 5839 5838 5837 5836 5836 5835 5834 5833 5833 5832 5832 5832 5832 5832 5832 5832 5831 5832 5832 5832 5832 5832 5832 5833 5833 5833 5834 5834 5834 5835 5834 5834 5834 5834
5848 5846 5845 5844 5842 5840 5839 5837 5836 5835 5833 5832 5831 5831 5830 5829 5828 5827 5827 5826 5826 5826 5826 5826 5826 5826 5826 5826 5826 5826 5826 5826 5826 5826 5827 5827 5828 5828 5828 5828 5828 5828 5828
5844 5842 5841 5840 5838 5836 5835 5833 5831 5830 5828 5827 5826 5825 5825 5823 5822 5821 5821 5820 5820 5820 5820 5819 5819 5819 5819 5819 5819 5819 5820 5820 5820 5820 5820 5820 5821 5821 5821 5821 5822 5822 5822
5840 5839 5837 5835 5833 5832 5830 5828 5826 5825 5823 5822 5821 5820 5819 5817 5816 5815 5814 5814 5813 5813 5813 5813 5813 5812 5812 5812 5812 5812 5812 5812 5813 5813 5813 5813 5813 5814 5814 5814 5815 5815 5815
5836 5834 5832 5831 5829 5827 5825 5823 5821 5819 5818 5816 5815 5814 5812 5811 5810 5809 5808 5807 5807 5806 5806 5806 5806 5805 5805 5805 5805 5805 5805 5805 5805 5805 5805 5805 5805 5806 5806 5807 5807 5807 5808
5832 5830 5828 5825 5823 5821 5819 5817 5815 5814 5812 5810 5809 5807 5806 5805 5804 5802 5801 5800 5800 5799 5798 5798 5798 5798 5797 5797 5797 5796 5797 5797 5797 5797 5797 5797 5797 5797 5797 5798 5799 5799 5799
5827 5824 5822 5820 5818 5815 5813 5810 5809 5807 5805 5804 5802 5800 5799 5798 5796 5795 5794 5793 5792 5792 5791 5790 5790 5789 5789 5789 5789 5788 5788 5788 5789 5789 5789 5789 5789 5789 5788 5789 5789 5789 5790
5821 5819 5816 5814 5811 5809 5807 5804 5803 5801 5799 5797 5795 5793 5792 5790 5789 5787 5786 5785 5784 5783 5782 5782 5781 5781 5781 5781 5780 5780 5780 5780 5780 5781 5780 5780 5780 5779 5779 5780 5780 5780 5780
5816 5813 5810 5808 5806 5803 5800 5798 5796 5794 5793 5791 5788 5786 5785 5783 5782 5780 5778 5777 5775 5774 5774 5773 5773 5772 5772 5772 5772 5771 5771 5770 5771 5771 5770 5770 5770 5770 5770 5770 5770 5770 5771
5810 5807 5804 5802 5799 5797 5794 5792 5790 5788 5786 5784 5781 5779 5778 5776 5774 5772 5770 5768 5767 5766 5765 5764 5764 5763 5763 5762 5762 5762 5761 5761 5761 5761 5761 5761 5761 5761 5760 5760 5760 5761 5761
5803 5801 5798 5796 5793 5790 5788 5786 5783 5781 5779 5777 5774 5772 5770 5768 5766 5763 5761 5760 5758 5757 5756 5755 5755 5754 5753 5753 5753 5753 5752 5751 5751 5751 5751 5751 5751 5751 5751 5751 5751 5751 5751
5797 5794 5791 5789 5786 5784 5781 5779 5776 5774 5771 5769 5767 5764 5761 5759 5757 5755 5753 5751 5750 5748 5747 5747 5746 5745 5744 5743 5743 5742 5742 5741 5741 5741 5741 5741 5741 5740 5741 5741 5741 5741 5742